Time,TemperatureF,DewpointF,PressureIn,WindDirection,WindDirectionDegrees,WindSpeedMPH,WindSpeedGustMPH,Humidity,HourlyPrecipIn,Conditions,Clouds,dailyrainin,SoftwareType,DateUTC
2013-11-22 00:00:00,47.9,47.0,30.40,North,360,0.0,0.0,96,0.00,,,0.00,weatherlink.com 1.10,2013-11-22 05:00:00,
2013-11-22 00:15:00,47.9,47.0,30.39,NNW,344,0.0,0.0,96,0.00,,,0.00,weatherlink.com 1.10,2013-11-22 05:15:00,
2013-11-22 00:30:00,47.9,47.0,30.39,WNW,300,0.0,0.0,96,0.00,,,0.00,weatherlink.com 1.10,2013-11-22 05:30:00,
2013-11-22 00:45:00,47.9,47.0,30.38,North,11,0.0,0.0,96,0.00,,,0.00,weatherlink.com 1.10,2013-11-22 05:45:00,
2013-11-22 01:00:00,48.0,47.0,30.38,NNE,19,0.0,0.0,96,0.00,,,0.00,weatherlink.com 1.10,2013-11-22 06:00:00,
2013-11-22 01:15:00,48.0,47.0,30.38,North,5,0.0,0.0,96,0.00,,,0.00,weatherlink.com 1.10,2013-11-22 06:15:00,
2013-11-22 01:30:00,48.0,47.0,30.37,NNE,13,0.0,0.0,96,0.00,,,0.00,weatherlink.com 1.10,2013-11-22 06:30:00,
2013-11-22 01:45:00,48.0,47.0,30.37,NNE,13,0.0,0.0,96,0.00,,,0.00,weatherlink.com 1.10,2013-11-22 06:45:00,
2013-11-22 02:00:00,48.1,47.0,30.36,NNE,13,0.0,0.0,96,0.00,,,0.00,weatherlink.com 1.10,2013-11-22 07:00:00,
2013-11-22 02:15:00,48.2,47.0,30.36,North,351,0.0,0.0,96,0.00,,,0.00,weatherlink.com 1.10,2013-11-22 07:15:00,
2013-11-22 02:30:00,48.2,47.0,30.36,NW,316,0.0,0.0,96,0.00,,,0.00,weatherlink.com 1.10,2013-11-22 07:30:00,
2013-11-22 02:45:00,48.2,47.0,30.36,NNW,336,0.0,0.0,96,0.00,,,0.00,weatherlink.com 1.10,2013-11-22 07:45:00,
2013-11-22 03:00:00,48.2,47.0,30.36,NW,326,0.0,0.0,96,0.00,,,0.00,weatherlink.com 1.10,2013-11-22 08:00:00,
2013-11-22 03:15:00,48.2,47.0,30.36,NW,326,0.0,0.0,96,0.00,,,0.00,weatherlink.com 1.10,2013-11-22 08:15:00,
2013-11-22 03:30:00,48.2,47.0,30.35,NW,326,0.0,0.0,96,0.00,,,0.00,weatherlink.com 1.10,2013-11-22 08:30:00,
2013-11-22 03:45:00,48.2,47.0,30.34,NW,326,0.0,0.0,96,0.00,,,0.00,weatherlink.com 1.10,2013-11-22 08:45:00,
2013-11-22 04:01:00,48.2,47.0,30.33,NW,326,0.0,0.0,96,0.00,,,0.00,weatherlink.com 1.10,2013-11-22 09:01:00,
2013-11-22 04:16:00,48.3,48.0,30.33,NW,326,0.0,0.0,97,0.00,,,0.00,weatherlink.com 1.10,2013-11-22 09:16:00,
2013-11-22 04:31:00,48.3,48.0,30.33,NW,326,0.0,0.0,97,0.00,,,0.00,weatherlink.com 1.10,2013-11-22 09:31:00,
2013-11-22 04:46:00,48.3,48.0,30.34,NW,326,0.0,0.0,97,0.00,,,0.00,weatherlink.com 1.10,2013-11-22 09:46:00,
2013-11-22 05:01:00,48.5,48.0,30.34,NW,326,0.0,0.0,97,0.00,,,0.00,weatherlink.com 1.10,2013-11-22 10:01:00,
2013-11-22 05:16:00,48.5,48.0,30.34,NW,326,0.0,0.0,97,0.00,,,0.00,weatherlink.com 1.10,2013-11-22 10:16:00,
2013-11-22 05:31:00,48.6,48.0,30.34,NW,311,0.0,0.0,97,0.00,,,0.00,weatherlink.com 1.10,2013-11-22 10:31:00,
2013-11-22 05:46:00,48.6,48.0,30.33,NW,311,0.0,0.0,97,0.00,,,0.00,weatherlink.com 1.10,2013-11-22 10:46:00,
2013-11-22 06:01:00,48.6,48.0,30.33,NW,311,0.0,0.0,97,0.00,,,0.00,weatherlink.com 1.10,2013-11-22 11:01:00,
2013-11-22 06:16:00,48.6,48.0,30.33,NW,311,0.0,0.0,97,0.00,,,0.00,weatherlink.com 1.10,2013-11-22 11:16:00,
2013-11-22 06:31:00,48.6,48.0,30.32,NW,311,0.0,0.0,97,0.00,,,0.00,weatherlink.com 1.10,2013-11-22 11:31:00,
2013-11-22 06:46:00,-999.0,-99.9,30.32,North,-999,-999.0,-999.0,-999,0.00,,,0.00,weatherlink.com 1.10,2013-11-22 11:46:00,
2013-11-22 07:01:00,-999.0,-99.9,30.32,North,-999,-999.0,-999.0,-999,0.00,,,0.00,weatherlink.com 1.10,2013-11-22 12:01:00,
2013-11-22 07:16:00,-999.0,-99.9,30.32,North,-999,-999.0,-999.0,-999,0.00,,,0.00,weatherlink.com 1.10,2013-11-22 12:16:00,
2013-11-22 07:31:00,-999.0,-99.9,30.32,North,-999,-999.0,-999.0,-999,0.00,,,0.00,weatherlink.com 1.10,2013-11-22 12:31:00,
2013-11-22 07:46:00,-999.0,-99.9,30.31,North,-999,-999.0,-999.0,-999,0.00,,,0.00,weatherlink.com 1.10,2013-11-22 12:46:00,
2013-11-22 08:01:00,49.6,49.0,30.32,NW,311,0.0,0.0,97,0.00,,,0.00,weatherlink.com 1.10,2013-11-22 13:01:00,
2013-11-22 08:16:00,50.0,49.0,30.32,NW,311,0.0,0.0,97,0.00,,,0.00,weatherlink.com 1.10,2013-11-22 13:16:00,
2013-11-22 08:31:00,50.6,50.0,30.31,WNW,295,0.0,0.0,97,0.00,,,0.00,weatherlink.com 1.10,2013-11-22 13:31:00,
2013-11-22 08:46:00,51.1,50.0,30.31,SSW,213,0.0,0.0,96,0.00,,,0.00,weatherlink.com 1.10,2013-11-22 13:46:00,
2013-11-22 09:01:00,51.6,51.0,30.31,SSW,213,0.0,0.0,96,0.00,,,0.00,weatherlink.com 1.10,2013-11-22 14:01:00,
2013-11-22 09:16:00,51.9,51.0,30.31,SSW,213,0.0,0.0,95,0.00,,,0.00,weatherlink.com 1.10,2013-11-22 14:16:00,
2013-11-22 09:31:00,52.4,51.0,30.31,SSW,213,0.0,0.0,94,0.00,,,0.00,weatherlink.com 1.10,2013-11-22 14:31:00,
2013-11-22 09:46:00,52.7,51.0,30.31,SSW,212,0.0,0.0,94,0.00,,,0.00,weatherlink.com 1.10,2013-11-22 14:46:00,
2013-11-22 10:01:00,53.3,52.0,30.31,SSW,204,0.0,0.0,94,0.00,,,0.00,weatherlink.com 1.10,2013-11-22 15:01:00,
2013-11-22 10:16:00,53.9,52.0,30.31,South,182,0.0,0.0,93,0.00,,,0.00,weatherlink.com 1.10,2013-11-22 15:16:00,
2013-11-22 10:31:00,54.3,52.0,30.30,WSW,242,0.0,0.0,92,0.00,,,0.00,weatherlink.com 1.10,2013-11-22 15:31:00,
2013-11-22 10:46:00,54.7,53.0,30.30,SSE,168,0.0,0.0,93,0.00,,,0.00,weatherlink.com 1.10,2013-11-22 15:46:00,
2013-11-22 11:01:00,54.9,52.0,30.29,SSE,168,0.0,0.0,91,0.00,,,0.00,weatherlink.com 1.10,2013-11-22 16:01:00,
2013-11-22 11:17:00,55.4,53.0,30.28,SSE,148,0.0,0.0,91,0.00,,,0.00,weatherlink.com 1.10,2013-11-22 16:17:00,
2013-11-22 11:32:00,56.0,54.0,30.27,SE,143,0.0,0.0,91,0.00,,,0.00,weatherlink.com 1.10,2013-11-22 16:32:00,
2013-11-22 11:47:00,56.2,54.0,30.28,SSW,200,0.0,0.0,91,0.00,,,0.00,weatherlink.com 1.10,2013-11-22 16:47:00,
2013-11-22 12:02:00,56.7,54.0,30.27,SW,217,0.0,0.0,91,0.00,,,0.00,weatherlink.com 1.10,2013-11-22 17:02:00,
2013-11-22 12:17:00,56.6,54.0,30.25,SSE,168,0.0,0.0,91,0.00,,,0.00,weatherlink.com 1.10,2013-11-22 17:17:00,
2013-11-22 12:32:00,57.1,55.0,30.25,South,181,0.0,0.0,91,0.00,,,0.00,weatherlink.com 1.10,2013-11-22 17:32:00,
2013-11-22 12:47:00,57.6,55.0,30.24,SSW,202,0.0,0.0,90,0.00,,,0.00,weatherlink.com 1.10,2013-11-22 17:47:00,
2013-11-22 13:02:00,58.0,55.0,30.23,SSE,155,0.0,0.0,90,0.00,,,0.00,weatherlink.com 1.10,2013-11-22 18:02:00,
2013-11-22 13:17:00,58.8,56.0,30.22,South,187,0.0,0.0,89,0.00,,,0.00,weatherlink.com 1.10,2013-11-22 18:17:00,
2013-11-22 13:32:00,59.1,56.0,30.21,SW,221,0.0,0.0,89,0.00,,,0.00,weatherlink.com 1.10,2013-11-22 18:32:00,
2013-11-22 13:47:00,59.0,56.0,30.21,SSE,156,0.0,0.0,89,0.00,,,0.00,weatherlink.com 1.10,2013-11-22 18:47:00,
2013-11-22 14:02:00,60.7,57.0,30.20,SW,220,0.0,0.0,88,0.00,,,0.00,weatherlink.com 1.10,2013-11-22 19:02:00,
2013-11-22 14:17:00,62.0,58.0,30.19,South,188,0.0,0.0,86,0.00,,,0.00,weatherlink.com 1.10,2013-11-22 19:17:00,
2013-11-22 14:32:00,62.3,58.0,30.18,WSW,242,0.0,0.0,85,0.00,,,0.00,weatherlink.com 1.10,2013-11-22 19:32:00,
2013-11-22 14:47:00,62.3,58.0,30.18,WSW,241,0.0,0.0,85,0.00,,,0.00,weatherlink.com 1.10,2013-11-22 19:47:00,
2013-11-22 15:02:00,62.5,58.0,30.17,SSW,202,0.0,0.0,85,0.00,,,0.00,weatherlink.com 1.10,2013-11-22 20:02:00,
2013-11-22 15:17:00,62.3,58.0,30.17,SSW,194,0.0,0.0,85,0.00,,,0.00,weatherlink.com 1.10,2013-11-22 20:17:00,
2013-11-22 15:32:00,61.6,57.0,30.16,SSW,213,0.0,0.0,86,0.00,,,0.00,weatherlink.com 1.10,2013-11-22 20:32:00,
2013-11-22 15:47:00,61.5,57.0,30.16,SSW,205,0.0,0.0,86,0.00,,,0.00,weatherlink.com 1.10,2013-11-22 20:47:00,
2013-11-22 16:02:00,61.3,57.0,30.16,SSW,196,0.0,0.0,86,0.00,,,0.00,weatherlink.com 1.10,2013-11-22 21:02:00,
2013-11-22 16:17:00,61.2,57.0,30.16,SSE,150,0.0,0.0,87,0.00,,,0.00,weatherlink.com 1.10,2013-11-22 21:17:00,
2013-11-22 16:32:00,61.2,57.0,30.16,SSW,202,0.0,0.0,87,0.00,,,0.00,weatherlink.com 1.10,2013-11-22 21:32:00,
2013-11-22 16:47:00,60.8,57.0,30.15,SW,215,0.0,0.0,87,0.00,,,0.00,weatherlink.com 1.10,2013-11-22 21:47:00,
2013-11-22 17:02:00,60.6,57.0,30.15,SW,230,0.0,0.0,88,0.00,,,0.00,weatherlink.com 1.10,2013-11-22 22:02:00,
2013-11-22 17:17:00,60.5,57.0,30.15,SSW,199,0.0,0.0,88,0.00,,,0.00,weatherlink.com 1.10,2013-11-22 22:17:00,
2013-11-22 17:32:00,60.2,57.0,30.15,SSW,209,0.0,0.0,88,0.00,,,0.00,weatherlink.com 1.10,2013-11-22 22:32:00,
2013-11-22 17:47:00,60.0,57.0,30.14,South,189,0.0,0.0,89,0.00,,,0.00,weatherlink.com 1.10,2013-11-22 22:47:00,
2013-11-22 18:02:00,59.8,57.0,30.14,SSW,198,0.0,0.0,89,0.00,,,0.00,weatherlink.com 1.10,2013-11-22 23:02:00,
2013-11-22 18:17:00,59.6,57.0,30.15,SSW,204,0.0,0.0,90,0.00,,,0.00,weatherlink.com 1.10,2013-11-22 23:17:00,
2013-11-22 18:32:00,59.5,57.0,30.14,SSW,206,0.0,0.0,90,0.00,,,0.00,weatherlink.com 1.10,2013-11-22 23:32:00,
2013-11-22 18:47:00,59.4,57.0,30.13,SSW,201,0.0,0.0,90,0.00,,,0.00,weatherlink.com 1.10,2013-11-22 23:47:00,
2013-11-22 19:02:00,59.2,57.0,30.14,WSW,238,0.0,0.0,91,0.00,,,0.00,weatherlink.com 1.10,2013-11-23 00:02:00,
2013-11-22 19:18:00,59.1,57.0,30.13,SW,229,0.0,0.0,91,0.00,,,0.00,weatherlink.com 1.10,2013-11-23 00:18:00,
2013-11-22 19:33:00,59.0,56.0,30.13,SSW,198,0.0,0.0,91,0.00,,,0.00,weatherlink.com 1.10,2013-11-23 00:33:00,
2013-11-22 19:48:00,58.9,56.0,30.12,SW,218,0.0,0.0,91,0.00,,,0.00,weatherlink.com 1.10,2013-11-23 00:48:00,
2013-11-22 20:03:00,58.8,56.0,30.12,WSW,237,0.0,0.0,91,0.00,,,0.00,weatherlink.com 1.10,2013-11-23 01:03:00,
2013-11-22 20:18:00,58.6,56.0,30.11,SSW,210,0.0,0.0,92,0.00,,,0.00,weatherlink.com 1.10,2013-11-23 01:18:00,
2013-11-22 20:33:00,58.4,56.0,30.11,SSW,211,0.0,0.0,92,0.00,,,0.00,weatherlink.com 1.10,2013-11-23 01:33:00,
2013-11-22 20:48:00,58.2,56.0,30.12,SW,217,0.0,0.0,92,0.00,,,0.00,weatherlink.com 1.10,2013-11-23 01:48:00,
2013-11-22 21:03:00,58.1,56.0,30.12,SSW,209,0.0,0.0,92,0.00,,,0.00,weatherlink.com 1.10,2013-11-23 02:03:00,
2013-11-22 21:18:00,57.7,56.0,30.12,SSW,209,0.0,0.0,93,0.00,,,0.00,weatherlink.com 1.10,2013-11-23 02:18:00,
2013-11-22 21:33:00,57.7,56.0,30.11,SSW,209,0.0,0.0,93,0.00,,,0.00,weatherlink.com 1.10,2013-11-23 02:33:00,
2013-11-22 21:48:00,57.7,56.0,30.11,SW,236,0.0,0.0,93,0.00,,,0.00,weatherlink.com 1.10,2013-11-23 02:48:00,
2013-11-22 22:03:00,57.7,56.0,30.11,WSW,248,0.0,0.0,93,0.00,,,0.00,weatherlink.com 1.10,2013-11-23 03:03:00,
2013-11-22 22:18:00,57.7,56.0,30.11,WSW,240,0.0,0.0,94,0.00,,,0.00,weatherlink.com 1.10,2013-11-23 03:18:00,
2013-11-22 22:33:00,57.7,56.0,30.11,West,276,0.0,0.0,94,0.00,,,0.00,weatherlink.com 1.10,2013-11-23 03:33:00,
2013-11-22 22:48:00,57.7,56.0,30.10,West,276,0.0,0.0,94,0.00,,,0.00,weatherlink.com 1.10,2013-11-23 03:48:00,
2013-11-22 23:03:00,57.6,56.0,30.11,West,276,0.0,0.0,94,0.00,,,0.00,weatherlink.com 1.10,2013-11-23 04:03:00,
2013-11-22 23:18:00,57.5,56.0,30.10,West,276,0.0,0.0,94,0.00,,,0.00,weatherlink.com 1.10,2013-11-23 04:18:00,
2013-11-22 23:33:00,57.1,55.0,30.10,West,276,0.0,0.0,94,0.00,,,0.00,weatherlink.com 1.10,2013-11-23 04:33:00,
2013-11-22 23:48:00,56.9,55.0,30.10,West,276,0.0,0.0,94,0.00,,,0.00,weatherlink.com 1.10,2013-11-23 04:48:00,